Weather History for KCPS - January, 2014

Change the Weather History Date:

Sunday, January 12, 2014

  Actual Average Record
Temperature  
Mean Temperature 41 °F -  
Max Temperature 54 °F 44 °F 69 °F (2005)
Min Temperature 28 °F 28 °F 1 °F (1997)
Degree Days  
Heating Degree Days 24    
Moisture  
Dew Point 32 °F    
Average Humidity 68    
Maximum Humidity 96    
Minimum Humidity 47    
Precipitation  
Precipitation 0.00 in - - ()
Sea Level Pressure  
Sea Level Pressure 29.84 in    
Wind  
Wind Speed 6 mph (SSE)    
Max Wind Speed 16 mph    
Max Gust Speed 26 mph    
Visibility 10 miles    
Events      
Averages and records for this station are not official NWS values.
T = Trace of Precipitation, MM = Missing Value Source: NWS Daily Summary

Daily Weather History Graph

Daily Weather History Graph

Search for Another Location

Airport or City:

Trip Planner

Search our weather history database for the weather conditions in past years. The results will help you decide how hot, cold, wet, or windy it might be!

Date:

Astronomy

Jan. 12, 2014 Rise Set
Actual Time 7:17 AM CST 5:00 PM CST
Civil Twilight 6:48 AM CST 5:29 PM CST
Nautical Twilight 6:15 AM CST 6:02 PM CST
Astronomical Twilight 5:43 AM CST 6:34 PM CST
Moon 2:28 PM CST (1/12) 4:16 AM CST (1/12)
Length of Visible Light 10h 41m
Length of Day
9h 42m
Waxing Gibbous, 90% of the Moon is Illuminated
Jan 12
Waxing Gibbous
Jan 15
Full
Jan 23
Last Quarter
Jan 30
New
Feb 6
First Quarter

Hourly Weather History & Observations

Time (CST) Temp. Windchill Dew Point Humidity Pressure Visibility Wind Dir Wind Speed Gust Speed Precip Events Conditions
12:53 AM 35.1 °F - 28.9 °F 78% 29.95 in 10.0 mi Calm Calm - N/A   Clear
1:53 AM 30.9 °F 27.5 °F 28.0 °F 89% 29.96 in 10.0 mi SSE 3.5 mph - N/A   Clear
2:53 AM 30.0 °F 26.5 °F 28.0 °F 92% 29.96 in 10.0 mi SSE 3.5 mph - N/A   Clear
3:53 AM 28.0 °F - 27.0 °F 96% 29.96 in 10.0 mi Calm Calm - N/A   Clear
4:53 AM 28.0 °F - 27.0 °F 96% 29.96 in 10.0 mi Calm Calm - N/A   Clear
5:53 AM 28.0 °F - 27.0 °F 96% 29.97 in 10.0 mi Calm Calm - N/A   Clear
6:53 AM 32.0 °F 26.4 °F 28.9 °F 88% 29.98 in 10.0 mi South 5.8 mph - N/A   Clear
7:53 AM 33.1 °F 27.7 °F 30.0 °F 89% 29.96 in 10.0 mi SSE 5.8 mph - N/A   Clear
8:53 AM 37.0 °F 30.4 °F 30.9 °F 79% 29.96 in 10.0 mi SSE 9.2 mph - N/A   Clear
9:53 AM 42.1 °F 35.7 °F 32.0 °F 67% 29.96 in 10.0 mi South 11.5 mph - N/A   Clear
10:53 AM 46.0 °F 40.2 °F 32.0 °F 58% 29.92 in 10.0 mi South 12.7 mph 19.6 mph N/A   Clear
11:53 AM 48.0 °F - 34.0 °F 58% 29.86 in 10.0 mi SSE 12.7 mph 19.6 mph N/A   Clear
12:53 PM 51.1 °F - 35.1 °F 54% 29.81 in 10.0 mi SSE 13.8 mph - N/A   Clear
1:53 PM 54.0 °F - 34.0 °F 47% 29.77 in 10.0 mi SSE 11.5 mph 24.2 mph N/A   Clear
2:53 PM 54.0 °F - 35.1 °F 49% 29.74 in 10.0 mi SSE 16.1 mph 21.9 mph N/A   Clear
3:53 PM 53.1 °F - 35.1 °F 50% 29.71 in 10.0 mi SSE 16.1 mph 26.5 mph N/A   Clear
4:53 PM 50.0 °F - 36.0 °F 59% 29.71 in 10.0 mi SSE 12.7 mph 20.7 mph N/A   Clear
5:53 PM 50.0 °F - 36.0 °F 59% 29.71 in 10.0 mi SSE 16.1 mph 24.2 mph N/A   Clear
6:53 PM 48.0 °F - 36.0 °F 63% 29.72 in 10.0 mi SSE 11.5 mph - N/A   Clear
7:53 PM 50.0 °F - 36.0 °F 59% 29.75 in 10.0 mi South 8.1 mph - N/A   Clear
8:53 PM 51.1 °F - 35.1 °F 54% 29.75 in 10.0 mi South 10.4 mph - N/A   Clear
9:53 PM 51.1 °F - 35.1 °F 54% 29.73 in 10.0 mi South 10.4 mph 19.6 mph N/A   Clear
10:53 PM 51.1 °F - 35.1 °F 54% 29.71 in 10.0 mi South 9.2 mph 17.3 mph N/A   Clear
11:53 PM 51.1 °F - 35.1 °F 54% 29.69 in 10.0 mi South 8.1 mph - N/A   Clear